[TLELIST] Archives

 

[list_settings.list_name] Current TLEs

January 15th 2012 PST

HST 1 20580U 90037B 12013.33966485 .00001544 00000-0 10224-3 0 9238 2 20580 028.4703 083.0867 0003380 194.0907 166.1770 15.02090662991274 ISS (ZARYA) 1 25544U 98067A 12014.42640257 .00011815 00000-0 15558-3 0 8170 2 25544 051.6428 178.4276 0021607 280.1549 115.6099 15.58671786753884 CXO 1 25867U 99040B 12015.54166667 -.00000979 00000-0 00000+0 0 6891 2 25867 071.1188 016.2406 8735985 277.6960 358.7349 00.37804312 8574 ____________________________________________________________________ These 2-Line ...Continue Reading

[list_settings.list_name] Current TLEs

January 14th 2012 PST

HST 1 20580U 90037B 12013.33966485 .00001544 00000-0 10224-3 0 9238 2 20580 028.4703 083.0867 0003380 194.0907 166.1770 15.02090662991274 ISS (ZARYA) 1 25544U 98067A 12013.40921406 .00013194 00000-0 16949-3 0 8105 2 25544 051.6419 183.5316 0023565 276.9178 166.9816 15.59153602753724 CXO 1 25867U 99040B 12012.91666667 -.00000794 00000-0 00000+0 0 6888 2 25867 071.0930 016.4102 8732633 277.7086 001.3538 00.37799906 8562 ____________________________________________________________________ These 2-Line ...Continue Reading

[list_settings.list_name] Current TLEs

January 13th 2012 PST

HST 1 20580U 90037B 12010.70633230 .00000170 00000-0 00000+0 0 9225 2 20580 028.4699 100.3063 0003433 159.0818 333.3663 15.02064828990879 ISS (ZARYA) 1 25544U 98067A 12012.23671296 .00013535 00000-0 17390-3 0 8025 2 25544 051.6422 189.4209 0023508 272.1321 066.2657 15.59123108753531 CXO 1 25867U 99040B 12012.91666667 -.00000794 00000-0 00000+0 0 6888 2 25867 071.0930 016.4102 8732633 277.7086 001.3538 00.37799906 8562 ____________________________________________________________________ These 2-Line ...Continue Reading

[list_settings.list_name] Current TLEs

January 12th 2012 PST

HST 1 20580U 90037B 12010.70633230 .00000170 00000-0 00000+0 0 9225 2 20580 028.4699 100.3063 0003433 159.0818 333.3663 15.02064828990879 ISS (ZARYA) 1 25544U 98067A 12011.35515759 .00012831 00000-0 16540-3 0 7953 2 25544 051.6418 193.8483 0023503 268.8749 158.2290 15.59095662753404 CXO 1 25867U 99040B 12012.91666667 -.00000794 00000-0 00000+0 0 6888 2 25867 071.0930 016.4102 8732633 277.7086 001.3538 00.37799906 8562 ____________________________________________________________________ These 2-Line ...Continue Reading

[list_settings.list_name] Current TLEs

January 11th 2012 PST

HST 1 20580U 90037B 12009.68524937 .00001904 00000-0 12898-3 0 9210 2 20580 028.4692 106.9879 0003601 159.0636 201.0108 15.02079972990729 ISS (ZARYA) 1 25544U 98067A 12010.24894676 .00012000 00000-0 15531-3 0 7898 2 25544 051.6419 199.4038 0023586 264.3293 069.8106 15.59062519753227 CXO 1 25867U 99040B 12007.58333333 -.00001034 00000-0 00000+0 0 6873 2 25867 071.0292 016.9175 8732987 277.6754 355.1947 00.37800482 8545 ____________________________________________________________________ These 2-Line ...Continue Reading

[list_settings.list_name] Current TLEs

January 10th 2012 PST

HST 1 20580U 90037B 12008.68859742 .00001910 00000-0 12946-3 0 9204 2 20580 028.4691 113.5060 0003606 149.3671 210.7173 15.02076552990573 ISS (ZARYA) 1 25544U 98067A 12009.36716284 .00023919 00000-0 30270-3 0 7839 2 25544 051.6400 203.8369 0023453 261.1369 160.6225 15.59051266753090 CXO 1 25867U 99040B 12007.58333333 -.00001034 00000-0 00000+0 0 6873 2 25867 071.0292 016.9175 8732987 277.6754 355.1947 00.37800482 8545 ____________________________________________________________________ These 2-Line ...Continue Reading

[list_settings.list_name] Current TLEs

January 9th 2012 PST

HST 1 20580U 90037B 12006.76172837 .00001912 00000-0 12963-3 0 9193 2 20580 028.4689 126.1094 0003555 129.5658 230.5242 15.02069848990280 ISS (ZARYA) 1 25544U 98067A 12008.47339243 .00006773 00000-0 90760-4 0 7779 2 25544 051.6426 208.3210 0023661 258.5223 183.6104 15.59018525752959 CXO 1 25867U 99040B 12007.58333333 -.00001034 00000-0 00000+0 0 6873 2 25867 071.0292 016.9175 8732987 277.6754 355.1947 00.37800482 8545 ____________________________________________________________________ These 2-Line ...Continue Reading

[list_settings.list_name] Current TLEs

January 8th 2012 PST

HST 1 20580U 90037B 12006.76172837 .00001912 00000-0 12963-3 0 9193 2 20580 028.4689 126.1094 0003555 129.5658 230.5242 15.02069848990280 ISS (ZARYA) 1 25544U 98067A 12007.37981302 .00014952 00000-0 19224-3 0 7713 2 25544 051.6426 213.8096 0023658 252.9018 167.5411 15.59000491752784 CXO 1 25867U 99040B 12007.58333333 -.00001034 00000-0 00000+0 0 6873 2 25867 071.0292 016.9175 8732987 277.6754 355.1947 00.37800482 8545 ____________________________________________________________________ These 2-Line ...Continue Reading

[list_settings.list_name] Current TLEs

January 7th 2012 PST

HST 1 20580U 90037B 12005.76507043 .00001923 00000-0 13049-3 0 9180 2 20580 028.4687 132.6268 0003565 119.8028 240.3023 15.02066476990131 ISS (ZARYA) 1 25544U 98067A 12006.48525286 .00016129 00000-0 20701-3 0 7663 2 25544 051.6427 218.3020 0023593 249.4422 187.0901 15.58978366752640 CXO 1 25867U 99040B 12007.58333333 -.00001034 00000-0 00000+0 0 6873 2 25867 071.0292 016.9175 8732987 277.6754 355.1947 00.37800482 8545 ____________________________________________________________________ These 2-Line ...Continue Reading

[list_settings.list_name] Current TLEs

January 6th 2012 PST

HST 1 20580U 90037B 12003.70530029 .00001815 00000-0 12250-3 0 9174 2 20580 028.4686 146.0963 0003477 098.4410 261.6736 15.02058594989823 ISS (ZARYA) 1 25544U 98067A 12005.31309028 .00016673 00000-0 21406-3 0 7597 2 25544 051.6425 224.1890 0023567 244.9624 088.7244 15.58941715752457 CXO 1 25867U 99040B 12004.95833333 -.00001147 00000-0 00000+0 0 6860 2 25867 071.0139 017.1190 8731693 277.6807 357.7671 00.37798351 8539 ____________________________________________________________________ These 2-Line ...Continue Reading
  • This mailing list is a public mailing list - anyone may join or leave, at any time.
  • This mailing list is announce-only.

International Space Station (ISS) / Hubble Space Telescope (HST) / Chandra X-Ray Observatory Orbital Data via EMAIL

Privacy Policy:

Private list